[[{"header":{"parameterUnit":"m.s-1","parameterCategory":1,"la1":30.2991,"la2":30.254,"lo1":-89.0895,"lo2":-89.0444,"dy":0.0017,"dx":0.0017,"nx":28,"ny":28,"refTime":"2024-06-04T09:00:00:Z","depth":0,"parameterNumber":2,"parameterNumberName":"U-component_of_WINDS"},"data":[0,0,0,0,0,0,0,0,0,0,0,0,0,0,0,0,0,0,0,0,0,0,0,0,0,0,0,0,0,0,0,0,0,0,0,0,0,0,0,0,0,0,0,0,0,0,0,0,0,0,0,0,0,0,0,0,0,0,-0.5706,-0.5707,0,-0.577,-0.5771,-0.5771,-0.5791,-0.5791,-0.579,-0.579,-0.5857,-0.5859,-0.5861,0,0,0,0,0,0,0,0,0,0,0,0,0,-0.5605,-0.5606,-0.5706,-0.5707,-0.5708,-0.577,-0.5771,-0.5772,-0.5791,-0.579,-0.579,-0.579,-0.5857,-0.5859,-0.5861,0,0,0,0,0,0,0,0,0,0,0,0,0,-0.5657,-0.5607,-0.5706,-0.5725,-0.5727,-0.577,-0.5771,-0.5772,-0.5791,-0.579,-0.579,-0.579,-0.5856,-0.5859,-0.5862,-0.5891,0,0,-0.5871,-0.5873,0,0,0,0,0,0,0,0,-0.5654,-0.566,-0.5721,-0.5724,-0.5726,-0.5772,-0.576,-0.5812,-0.5791,-0.5767,-0.579,-0.5789,-0.5829,-0.5835,-0.5848,-0.5894,-0.5897,-0.5872,-0.5874,-0.5875,-0.5876,0,0,0,0,0,0,0,-0.565,-0.5658,-0.5732,-0.5722,-0.5725,-0.5731,-0.5738,-0.577,-0.58,-0.5769,-0.577,-0.5778,-0.5831,-0.5845,-0.5849,-0.5898,-0.5872,-0.5874,-0.5876,-0.5878,-0.5973,-0.5974,0,0,0,0,0,0,-0.5643,-0.5655,-0.573,-0.5733,-0.5688,-0.5733,-0.5741,-0.5758,-0.58,-0.5806,-0.5778,-0.5778,-0.5839,-0.5846,-0.5852,-0.589,-0.5875,-0.5878,-0.588,-0.5972,-0.5973,-0.5974,0,0,0,0,0,0,-0.5641,-0.5649,-0.5727,-0.5694,-0.5705,-0.5736,-0.5754,-0.5759,-0.5773,-0.5807,-0.5812,-0.5786,-0.5839,-0.5847,-0.5881,-0.5892,-0.5879,-0.5882,-0.5972,-0.5973,-0.5974,-0.5965,0,0,0,0,0,0,-0.5638,-0.5648,-0.5659,-0.5694,-0.5706,-0.5754,-0.5755,-0.5761,-0.5778,-0.5779,-0.5816,-0.5822,-0.584,-0.5876,-0.5884,-0.5896,-0.5885,-0.5971,-0.5972,-0.5973,-0.5965,-0.5966,-0.5967,0,0,0,0,0,-0.5634,-0.5654,-0.5659,-0.5668,-0.572,-0.5755,-0.5762,-0.5781,-0.5779,-0.5791,-0.5812,-0.5821,-0.589,-0.588,-0.5889,-0.5902,-0.597,-0.5972,-0.5973,-0.5964,-0.5965,-0.5967,0,0,0,0,0,0,-0.562,-0.5659,-0.5665,-0.5697,-0.5723,-0.5758,-0.5773,-0.5782,-0.5809,-0.5809,-0.5833,-0.5841,-0.5873,-0.5891,-0.5879,-0.5933,-0.593,-0.5934,-0.592,-0.5922,-0.5923,-0.5918,-0.5887,0,0,0,0,0,-0.562,-0.5644,-0.5678,-0.5703,-0.5715,-0.5742,-0.5758,-0.5771,-0.5798,-0.5809,-0.5833,-0.586,-0.5888,-0.5906,-0.5933,-0.5967,-0.5976,-0.5981,-0.5982,-0.5982,-0.5985,-0.6006,-0.6009,-0.5979,-0.5979,-0.5979,0,0,-0.5622,-0.5646,-0.566,-0.5701,-0.5722,-0.5747,-0.5751,-0.5777,-0.5797,-0.5813,-0.5847,-0.5865,-0.5897,-0.5931,-0.5948,-0.5947,-0.5996,-0.5984,-0.5985,-0.5987,-0.6008,-0.6011,-0.6013,-0.598,-0.598,-0.5979,0,0,-0.5638,-0.5658,-0.5682,-0.5703,-0.5734,-0.5752,-0.5758,-0.5792,-0.5805,-0.5839,-0.5852,-0.5876,-0.5924,-0.5946,-0.5964,-0.5989,-0.5998,-0.5997,-0.6003,-0.6023,-0.6026,-0.6028,-0.6038,-0.6042,-0.6,-0.6,-0.6,0,-0.5636,-0.5674,-0.5693,-0.5719,-0.5738,-0.5753,-0.5778,-0.5798,-0.5837,-0.585,-0.5849,-0.5909,-0.5931,-0.5972,-0.5978,-0.5991,-0.6,-0.5994,-0.6023,-0.6026,-0.6028,-0.6039,-0.6042,-0.6,-0.6,-0.6,-0.6,0,-0.5671,-0.5697,-0.5713,-0.575,-0.577,-0.5795,-0.582,-0.5838,-0.5849,-0.5867,-0.5903,-0.593,-0.5964,-0.5974,-0.5986,-0.6017,-0.6016,-0.6019,-0.6016,-0.6031,-0.6041,-0.6045,-0.6,-0.6,-0.6,-0.6,0,0,-0.5679,-0.5727,-0.5733,-0.575,-0.5787,-0.5808,-0.5835,-0.5868,-0.5883,-0.591,-0.5934,-0.5974,-0.5977,-0.5997,-0.6012,-0.6029,-0.6049,-0.603,-0.6031,-0.6034,-0.6087,-0.6085,-0.6089,-0.6055,-0.6056,-0.6056,-0.6085,0,-0.5701,-0.5749,-0.5767,-0.5807,-0.5832,-0.5848,-0.5871,-0.5897,-0.5915,-0.594,-0.596,-0.5989,-0.599,-0.6003,-0.602,-0.6043,-0.606,-0.6041,-0.6079,-0.608,-0.6072,-0.6094,-0.6093,-0.6118,-0.6089,-0.6089,-0.609,0,-0.5732,-0.5759,-0.5801,-0.5835,-0.5847,-0.5867,-0.59,-0.5923,-0.5953,-0.5965,-0.5987,-0.6001,-0.6031,-0.6026,-0.6069,-0.6055,-0.6072,-0.6085,-0.6087,-0.6092,-0.6086,-0.6101,-0.6126,-0.613,-0.6096,-0.6095,-0.6095,0,-0.5736,-0.5782,-0.5814,-0.5828,-0.5869,-0.5883,-0.5901,-0.593,-0.5949,-0.5978,-0.599,-0.6022,-0.604,-0.6064,-0.6086,-0.6081,-0.6127,-0.6124,-0.6139,-0.6139,-0.6149,-0.6149,-0.6178,-0.6158,-0.6158,-0.6158,-0.6158,0,-0.5759,-0.5784,-0.5816,-0.5836,-0.5865,-0.5887,-0.5916,-0.5934,-0.5961,-0.5985,-0.6,-0.6023,-0.605,-0.6077,-0.6094,-0.6128,-0.6135,-0.6147,-0.6151,-0.6146,-0.6145,-0.6158,-0.6157,-0.6159,-0.6159,-0.6159,-0.6158,0,-0.5768,-0.579,-0.5826,-0.5861,-0.5871,-0.5891,-0.5922,-0.5942,-0.5961,-0.5992,-0.6,-0.603,-0.6063,-0.6087,-0.6128,-0.614,-0.6176,-0.618,-0.6166,-0.6169,-0.6183,-0.6182,-0.6223,-0.6231,-0.6204,-0.6204,-0.6205,0,-0.5782,-0.5801,-0.5839,-0.5856,-0.5874,-0.5901,-0.592,-0.5943,-0.5963,-0.5999,-0.6015,-0.6048,-0.6076,-0.6127,-0.6153,-0.6185,-0.6191,-0.6203,-0.6196,-0.619,-0.6193,-0.6192,-0.6195,-0.6205,-0.6205,-0.6205,-0.6205,0,-0.5804,-0.5814,-0.5841,-0.5872,-0.5894,-0.592,-0.5946,-0.596,-0.5987,-0.6009,-0.6042,-0.6063,-0.6106,-0.6139,-0.6174,-0.6194,-0.6205,-0.6207,-0.6212,-0.6208,-0.6199,-0.6206,-0.617,-0.6206,-0.6206,-0.6206,-0.6206,-0.6206,-0.5817,-0.5835,-0.5865,-0.5895,-0.5917,-0.5941,-0.5962,-0.5983,-0.6011,-0.6047,-0.6059,-0.6093,-0.6124,-0.6172,-0.6192,-0.622,-0.622,-0.6228,-0.623,-0.6232,-0.6232,-0.6194,-0.6227,-0.6227,-0.6227,-0.6227,-0.6227,0,-0.5841,-0.586,-0.5888,-0.5924,-0.5947,-0.5954,-0.5984,-0.6004,-0.6034,-0.6061,-0.6088,-0.6127,-0.6159,-0.6188,-0.6222,-0.6239,-0.6245,-0.6247,-0.6247,-0.6252,-0.623,-0.6222,-0.6242,-0.6242,-0.6242,-0.6242,-0.6242,-0.6242,-0.5856,-0.5889,-0.5903,-0.5947,-0.5967,-0.6,-0.6017,-0.604,-0.6062,-0.6104,-0.6131,-0.6149,-0.6178,-0.6214,-0.6245,-0.6253,-0.6265,-0.6266,-0.6276,-0.6255,-0.6253,-0.6251,-0.6244,-0.6269,-0.6269,-0.6295,-0.6296,-0.6296]},{"header":{"parameterUnit":"m.s-1","parameterCategory":1,"la1":30.2991,"la2":30.254,"lo1":-89.0895,"lo2":-89.0444,"dy":0.0017,"dx":0.0017,"nx":28,"ny":28,"refTime":"2024-06-04T09:00:00:Z","depth":0,"parameterNumber":3,"parameterNumberName":"V-component_of_WINDS"},"data":[0,0,0,0,0,0,0,0,0,0,0,0,0,0,0,0,0,0,0,0,0,0,0,0,0,0,0,0,0,0,0,0,0,0,0,0,0,0,0,0,0,0,0,0,0,0,0,0,0,0,0,0,0,0,0,0,0,0,5.8736,5.8737,0,5.8795,5.8796,5.8797,5.8744,5.8741,5.8739,5.8737,5.8793,5.8797,5.88,0,0,0,0,0,0,0,0,0,0,0,0,0,5.8572,5.8575,5.8736,5.8737,5.8737,5.8795,5.8796,5.8797,5.8744,5.8741,5.8739,5.8736,5.8792,5.8796,5.8801,0,0,0,0,0,0,0,0,0,0,0,0,0,5.8638,5.8576,5.8736,5.8718,5.8717,5.8795,5.8796,5.8797,5.8745,5.8741,5.8738,5.8735,5.8791,5.8796,5.8801,5.8898,0,0,5.8817,5.8819,0,0,0,0,0,0,0,0,5.8635,5.8644,5.872,5.872,5.8719,5.8759,5.8759,5.8831,5.8745,5.8734,5.8737,5.8733,5.8784,5.879,5.8808,5.8901,5.8903,5.8818,5.8821,5.8823,5.8825,0,0,0,0,0,0,0,5.863,5.8641,5.8759,5.8721,5.872,5.8706,5.8711,5.8772,5.8776,5.8735,5.8731,5.8739,5.8783,5.8803,5.8809,5.8904,5.8818,5.8822,5.8825,5.8827,5.9078,5.9081,0,0,0,0,0,0,5.8628,5.8638,5.8757,5.8761,5.8668,5.8711,5.8718,5.8749,5.8776,5.8777,5.8742,5.8736,5.8796,5.8803,5.8811,5.8925,5.8823,5.8828,5.8831,5.9075,5.9079,5.9083,0,0,0,0,0,0,5.8625,5.8639,5.8755,5.8699,5.8712,5.8717,5.8753,5.8752,5.8772,5.8781,5.8781,5.8762,5.8793,5.8803,5.8877,5.8926,5.883,5.8835,5.907,5.9076,5.9081,5.9156,0,0,0,0,0,0,5.862,5.8638,5.8676,5.87,5.8715,5.8822,5.8756,5.8755,5.8781,5.8775,5.8799,5.88,5.8792,5.8869,5.8882,5.8932,5.8839,5.9066,5.9073,5.9079,5.9149,5.9163,5.9175,0,0,0,0,0,5.8614,5.8694,5.8679,5.8693,5.8763,5.8825,5.8834,5.8823,5.8786,5.8823,5.8829,5.88,5.8919,5.8877,5.8891,5.8943,5.9063,5.9071,5.9079,5.9143,5.916,5.9175,0,0,0,0,0,0,5.8675,5.8697,5.868,5.877,5.8796,5.8816,5.8863,5.8842,5.8878,5.887,5.8854,5.886,5.8938,5.8948,5.8901,5.9038,5.8985,5.8996,5.9029,5.9045,5.9058,5.9054,5.8844,0,0,0,0,0,5.8699,5.8749,5.8765,5.8842,5.8857,5.8858,5.8884,5.8874,5.89,5.891,5.8921,5.8946,5.8989,5.9018,5.9058,5.915,5.9154,5.9193,5.9206,5.9216,5.9226,5.9275,5.9292,5.9109,5.9109,5.9108,0,0,5.8748,5.8767,5.8799,5.8855,5.8874,5.8924,5.8867,5.8923,5.896,5.8918,5.8989,5.8998,5.9024,5.9108,5.9145,5.9118,5.9278,5.9227,5.9235,5.9239,5.9285,5.9302,5.9317,5.9114,5.9113,5.9112,0,0,5.8864,5.8884,5.8951,5.8971,5.9002,5.9002,5.9018,5.9041,5.9046,5.9117,5.9087,5.9129,5.9204,5.9224,5.9244,5.9368,5.9341,5.9381,5.9449,5.9497,5.9511,5.9524,5.9567,5.9583,5.939,5.9391,5.9391,0,5.8922,5.8998,5.8987,5.9046,5.907,5.9037,5.9103,5.9123,5.9164,5.9182,5.9152,5.9245,5.926,5.9347,5.9378,5.9395,5.9412,5.9378,5.951,5.9523,5.9534,5.9575,5.9592,5.9395,5.9395,5.9394,5.9394,0,5.9067,5.912,5.917,5.9213,5.9243,5.9305,5.9302,5.9334,5.9321,5.9324,5.9396,5.9414,5.9456,5.9476,5.9464,5.9562,5.9544,5.9513,5.9458,5.9557,5.9595,5.9611,5.9402,5.94,5.9399,5.9398,0,0,5.9222,5.9258,5.9277,5.9295,5.9326,5.9366,5.9426,5.947,5.9497,5.9526,5.9575,5.9639,5.961,5.9633,5.9622,5.9664,5.976,5.9627,5.9627,5.9651,5.9868,5.9892,5.991,5.9743,5.9746,5.9749,5.9866,0,5.9339,5.9445,5.9437,5.9537,5.9585,5.9553,5.9605,5.9629,5.9633,5.9673,5.9677,5.9723,5.9681,5.9695,5.9735,5.974,5.9803,5.9731,5.9787,5.9789,5.9781,5.993,5.9955,6.0065,5.9881,5.9883,5.9885,0,5.949,5.9526,5.9631,5.9654,5.9674,5.9722,5.976,5.98,5.9825,5.9825,5.9851,5.9833,5.9892,5.9837,5.9917,5.9868,5.989,5.9896,5.99,5.9904,5.9843,5.9938,6.01,6.0116,5.9909,5.9907,5.9905,0,5.9592,5.9667,5.9739,5.9756,5.9785,5.9819,5.9832,5.9855,5.9882,5.9915,5.9932,5.9971,5.9992,6.0022,6.0015,5.9976,6.0096,6.0041,6.0097,6.0097,6.0123,6.0121,6.029,6.0138,6.0138,6.0138,6.0138,0,5.9723,5.9789,5.9786,5.983,5.9902,5.9891,5.9962,5.997,5.9991,6.0035,6.001,6.0051,6.0039,6.008,6.0074,6.0141,6.0151,6.0151,6.0149,6.0154,6.0153,6.0167,6.0159,6.0142,6.0141,6.014,6.014,0,5.985,5.9851,5.9927,5.9949,5.9956,6.0008,6.0025,6.0066,6.0068,6.0125,6.0137,6.014,6.0187,6.0183,6.0235,6.0231,6.0313,6.0302,6.0305,6.0302,6.0358,6.0353,6.0541,6.0565,6.0399,6.04,6.0402,0,5.9933,5.9983,6.001,6.0039,6.0055,6.0102,6.0129,6.012,6.0149,6.0182,6.0218,6.0263,6.0298,6.0374,6.038,6.0419,6.0408,6.0472,6.0414,6.0417,6.0408,6.0406,6.041,6.0483,6.0485,6.0486,6.0487,0,6.0081,6.0079,6.0121,6.0162,6.0196,6.0228,6.0256,6.0281,6.0274,6.0308,6.0356,6.0384,6.0438,6.0482,6.0519,6.0531,6.0508,6.0506,6.0521,6.0525,6.0525,6.0526,6.0335,6.0501,6.05,6.0499,6.0498,6.0498,6.0188,6.0231,6.0257,6.0303,6.0324,6.0352,6.0392,6.0399,6.044,6.0484,6.0476,6.053,6.0553,6.0601,6.0617,6.0658,6.0634,6.0656,6.0661,6.0667,6.0673,6.0519,6.0664,6.0664,6.0663,6.0663,6.0663,0,6.0334,6.035,6.0393,6.0435,6.0471,6.0448,6.0479,6.051,6.0558,6.0583,6.0618,6.0673,6.0716,6.0726,6.0766,6.0797,6.0787,6.0808,6.0805,6.0808,6.0692,6.0675,6.0815,6.0815,6.0815,6.0815,6.0815,6.0815,6.0415,6.0485,6.0486,6.0567,6.0581,6.0635,6.0654,6.0679,6.0698,6.0762,6.0798,6.0804,6.0822,6.0864,6.0901,6.0903,6.0918,6.0943,6.094,6.0831,6.0816,6.0802,6.0786,6.0947,6.0947,6.1053,6.1054,6.1055]}]]